Data supplied by UK-AIR on 5/4/2008
All Data GMT hour ending 
Status: R =Ratified P=Provisional,P*=As supplied
,,Lough Navar,,,,,,,,,,,,,,,,,,,,,,,
Date,time,"PM10 particulate matter (Hourly measured)",status,unit,"Ozone",status,unit
 
01-01-1996,01:00,,,,,,
01-01-1996,02:00,,,,10,R,ugm-3
01-01-1996,03:00,,,,12,R,ugm-3
01-01-1996,04:00,,,,14,R,ugm-3
01-01-1996,05:00,,,,20,R,ugm-3
01-01-1996,06:00,,,,24,R,ugm-3
01-01-1996,07:00,,,,30,R,ugm-3
01-01-1996,08:00,,,,38,R,ugm-3
01-01-1996,09:00,,,,42,R,ugm-3
01-01-1996,10:00,,,,44,R,ugm-3
01-01-1996,11:00,,,,40,R,ugm-3
01-01-1996,12:00,,,,38,R,ugm-3
01-01-1996,13:00,,,,34,R,ugm-3
01-01-1996,14:00,,,,36,R,ugm-3
01-01-1996,15:00,,,,30,R,ugm-3
01-01-1996,16:00,,,,16,R,ugm-3
01-01-1996,17:00,,,,8,R,ugm-3
01-01-1996,18:00,,,,10,R,ugm-3
01-01-1996,19:00,,,,8,R,ugm-3
01-01-1996,20:00,,,,4,R,ugm-3
01-01-1996,21:00,,,,2,R,ugm-3
01-01-1996,22:00,,,,0,R,ugm-3
01-01-1996,23:00,,,,0,R,ugm-3
01-01-1996,24:00,,,,6,R,ugm-3
02-01-1996,01:00,,,,16,R,ugm-3
02-01-1996,02:00,,,,12,R,ugm-3
02-01-1996,03:00,,,,16,R,ugm-3
02-01-1996,04:00,,,,8,R,ugm-3
02-01-1996,05:00,,,,16,R,ugm-3
02-01-1996,06:00,,,,14,R,ugm-3
02-01-1996,07:00,,,,12,R,ugm-3
02-01-1996,08:00,,,,30,R,ugm-3
02-01-1996,09:00,,,,42,R,ugm-3
02-01-1996,10:00,,,,48,R,ugm-3
02-01-1996,11:00,,,,30,R,ugm-3
02-01-1996,12:00,,,,28,R,ugm-3
02-01-1996,13:00,,,,34,R,ugm-3
02-01-1996,14:00,,,,38,R,ugm-3
02-01-1996,15:00,,,,36,R,ugm-3
02-01-1996,16:00,,,,34,R,ugm-3
02-01-1996,17:00,,,,42,R,ugm-3
02-01-1996,18:00,,,,40,R,ugm-3
02-01-1996,19:00,,,,42,R,ugm-3
02-01-1996,20:00,,,,46,R,ugm-3
02-01-1996,21:00,,,,46,R,ugm-3
02-01-1996,22:00,,,,48,R,ugm-3
02-01-1996,23:00,,,,62,R,ugm-3
02-01-1996,24:00,,,,62,R,ugm-3
03-01-1996,01:00,,,,64,R,ugm-3
03-01-1996,02:00,,,,64,R,ugm-3
03-01-1996,03:00,,,,66,R,ugm-3
03-01-1996,04:00,,,,66,R,ugm-3
03-01-1996,05:00,,,,68,R,ugm-3
03-01-1996,06:00,,,,66,R,ugm-3
03-01-1996,07:00,,,,66,R,ugm-3
03-01-1996,08:00,,,,66,R,ugm-3
03-01-1996,09:00,,,,66,R,ugm-3
03-01-1996,10:00,,,,68,R,ugm-3
03-01-1996,11:00,,,,68,R,ugm-3
03-01-1996,12:00,,,,66,R,ugm-3
03-01-1996,13:00,,,,66,R,ugm-3
03-01-1996,14:00,,,,64,R,ugm-3
03-01-1996,15:00,,,,62,R,ugm-3
03-01-1996,16:00,,,,60,R,ugm-3
03-01-1996,17:00,,,,62,R,ugm-3
03-01-1996,18:00,,,,62,R,ugm-3
03-01-1996,19:00,,,,62,R,ugm-3
03-01-1996,20:00,,,,62,R,ugm-3
03-01-1996,21:00,,,,62,R,ugm-3
03-01-1996,22:00,,,,60,R,ugm-3
03-01-1996,23:00,,,,58,R,ugm-3
03-01-1996,24:00,,,,56,R,ugm-3
04-01-1996,01:00,,,,54,R,ugm-3
04-01-1996,02:00,,,,52,R,ugm-3
04-01-1996,03:00,,,,52,R,ugm-3
04-01-1996,04:00,,,,50,R,ugm-3
04-01-1996,05:00,,,,42,R,ugm-3
04-01-1996,06:00,,,,40,R,ugm-3
04-01-1996,07:00,,,,38,R,ugm-3
04-01-1996,08:00,,,,34,R,ugm-3
04-01-1996,09:00,,,,30,R,ugm-3
04-01-1996,10:00,,,,24,R,ugm-3
04-01-1996,11:00,,,,26,R,ugm-3
04-01-1996,12:00,,,,24,R,ugm-3
04-01-1996,13:00,,,,22,R,ugm-3
04-01-1996,14:00,,,,24,R,ugm-3
04-01-1996,15:00,,,,18,R,ugm-3
04-01-1996,16:00,,,,16,R,ugm-3
04-01-1996,17:00,,,,14,R,ugm-3
04-01-1996,18:00,,,,44,R,ugm-3
04-01-1996,19:00,,,,36,R,ugm-3
04-01-1996,20:00,,,,30,R,ugm-3
04-01-1996,21:00,,,,22,R,ugm-3
04-01-1996,22:00,,,,18,R,ugm-3
04-01-1996,23:00,,,,22,R,ugm-3
04-01-1996,24:00,,,,20,R,ugm-3
05-01-1996,01:00,,,,22,R,ugm-3
05-01-1996,02:00,,,,38,R,ugm-3
05-01-1996,03:00,,,,44,R,ugm-3
05-01-1996,04:00,,,,38,R,ugm-3
05-01-1996,05:00,,,,36,R,ugm-3
05-01-1996,06:00,,,,50,R,ugm-3
05-01-1996,07:00,,,,62,R,ugm-3
05-01-1996,08:00,,,,66,R,ugm-3
05-01-1996,09:00,,,,68,R,ugm-3
05-01-1996,10:00,,,,70,R,ugm-3
05-01-1996,11:00,,,,68,R,ugm-3
05-01-1996,12:00,,,,68,R,ugm-3
05-01-1996,13:00,,,,68,R,ugm-3
05-01-1996,14:00,,,,62,R,ugm-3
05-01-1996,15:00,,,,56,R,ugm-3
05-01-1996,16:00,,,,44,R,ugm-3
05-01-1996,17:00,,,,66,R,ugm-3
05-01-1996,18:00,,,,58,R,ugm-3
05-01-1996,19:00,,,,56,R,ugm-3
05-01-1996,20:00,,,,44,R,ugm-3
05-01-1996,21:00,,,,40,R,ugm-3
05-01-1996,22:00,,,,56,R,ugm-3
05-01-1996,23:00,,,,38,R,ugm-3
05-01-1996,24:00,,,,38,R,ugm-3
06-01-1996,01:00,,,,42,R,ugm-3
06-01-1996,02:00,,,,52,R,ugm-3
06-01-1996,03:00,,,,54,R,ugm-3
06-01-1996,04:00,,,,50,R,ugm-3
06-01-1996,05:00,,,,56,R,ugm-3
06-01-1996,06:00,,,,64,R,ugm-3
06-01-1996,07:00,,,,64,R,ugm-3
06-01-1996,08:00,,,,64,R,ugm-3
06-01-1996,09:00,,,,64,R,ugm-3
06-01-1996,10:00,,,,64,R,ugm-3
06-01-1996,11:00,,,,64,R,ugm-3
06-01-1996,12:00,,,,66,R,ugm-3
06-01-1996,13:00,,,,66,R,ugm-3
06-01-1996,14:00,,,,64,R,ugm-3
06-01-1996,15:00,,,,64,R,ugm-3
06-01-1996,16:00,,,,62,R,ugm-3
06-01-1996,17:00,,,,58,R,ugm-3
06-01-1996,18:00,,,,56,R,ugm-3
06-01-1996,19:00,,,,56,R,ugm-3
06-01-1996,20:00,,,,58,R,ugm-3
06-01-1996,21:00,,,,58,R,ugm-3
06-01-1996,22:00,,,,56,R,ugm-3
06-01-1996,23:00,,,,56,R,ugm-3
06-01-1996,24:00,,,,48,R,ugm-3
07-01-1996,01:00,,,,46,R,ugm-3
07-01-1996,02:00,,,,46,R,ugm-3
07-01-1996,03:00,,,,48,R,ugm-3
07-01-1996,04:00,,,,44,R,ugm-3
07-01-1996,05:00,,,,42,R,ugm-3
07-01-1996,06:00,,,,40,R,ugm-3
07-01-1996,07:00,,,,40,R,ugm-3
07-01-1996,08:00,,,,62,R,ugm-3
07-01-1996,09:00,,,,72,R,ugm-3
07-01-1996,10:00,,,,70,R,ugm-3
07-01-1996,11:00,,,,70,R,ugm-3
07-01-1996,12:00,,,,72,R,ugm-3
07-01-1996,13:00,,,,72,R,ugm-3
07-01-1996,14:00,,,,68,R,ugm-3
07-01-1996,15:00,,,,66,R,ugm-3
07-01-1996,16:00,,,,68,R,ugm-3
07-01-1996,17:00,,,,66,R,ugm-3
07-01-1996,18:00,,,,64,R,ugm-3
07-01-1996,19:00,,,,60,R,ugm-3
07-01-1996,20:00,,,,60,R,ugm-3
07-01-1996,21:00,,,,58,R,ugm-3
07-01-1996,22:00,,,,56,R,ugm-3
07-01-1996,23:00,,,,52,R,ugm-3
07-01-1996,24:00,,,,54,R,ugm-3
08-01-1996,01:00,,,,48,R,ugm-3
08-01-1996,02:00,,,,52,R,ugm-3
08-01-1996,03:00,,,,44,R,ugm-3
08-01-1996,04:00,,,,44,R,ugm-3
08-01-1996,05:00,,,,52,R,ugm-3
08-01-1996,06:00,,,,56,R,ugm-3
08-01-1996,07:00,,,,62,R,ugm-3
08-01-1996,08:00,,,,64,R,ugm-3
08-01-1996,09:00,,,,66,R,ugm-3
08-01-1996,10:00,,,,66,R,ugm-3
08-01-1996,11:00,,,,64,R,ugm-3
08-01-1996,12:00,,,,64,R,ugm-3
08-01-1996,13:00,,,,62,R,ugm-3
08-01-1996,14:00,,,,68,R,ugm-3
08-01-1996,15:00,,,,66,R,ugm-3
08-01-1996,16:00,,,,68,R,ugm-3
08-01-1996,17:00,,,,72,R,ugm-3
08-01-1996,18:00,,,,74,R,ugm-3
08-01-1996,19:00,,,,72,R,ugm-3
08-01-1996,20:00,,,,78,R,ugm-3
08-01-1996,21:00,,,,80,R,ugm-3
08-01-1996,22:00,,,,76,R,ugm-3
08-01-1996,23:00,,,,78,R,ugm-3
08-01-1996,24:00,,,,80,R,ugm-3
09-01-1996,01:00,,,,84,R,ugm-3
09-01-1996,02:00,,,,82,R,ugm-3
09-01-1996,03:00,,,,78,R,ugm-3
09-01-1996,04:00,,,,78,R,ugm-3
09-01-1996,05:00,,,,80,R,ugm-3
09-01-1996,06:00,,,,76,R,ugm-3
09-01-1996,07:00,,,,78,R,ugm-3
09-01-1996,08:00,,,,76,R,ugm-3
09-01-1996,09:00,,,,76,R,ugm-3
09-01-1996,10:00,,,,76,R,ugm-3
09-01-1996,11:00,,,,74,R,ugm-3
09-01-1996,12:00,,,,70,R,ugm-3
09-01-1996,13:00,,,,70,R,ugm-3
09-01-1996,14:00,,,,70,R,ugm-3
09-01-1996,15:00,,,,68,R,ugm-3
09-01-1996,16:00,,,,66,R,ugm-3
09-01-1996,17:00,,,,64,R,ugm-3
09-01-1996,18:00,,,,62,R,ugm-3
09-01-1996,19:00,,,,60,R,ugm-3
09-01-1996,20:00,,,,58,R,ugm-3
09-01-1996,21:00,,,,42,R,ugm-3
09-01-1996,22:00,,,,40,R,ugm-3
09-01-1996,23:00,,,,44,R,ugm-3
09-01-1996,24:00,,,,20,R,ugm-3
10-01-1996,01:00,,,,14,R,ugm-3
10-01-1996,02:00,,,,8,R,ugm-3
10-01-1996,03:00,,,,4,R,ugm-3
10-01-1996,04:00,,,,6,R,ugm-3
10-01-1996,05:00,,,,4,R,ugm-3
10-01-1996,06:00,,,,2,R,ugm-3
10-01-1996,07:00,,,,4,R,ugm-3
10-01-1996,08:00,,,,4,R,ugm-3
10-01-1996,09:00,,,,4,R,ugm-3
10-01-1996,10:00,,,,6,R,ugm-3
10-01-1996,11:00,,,,4,R,ugm-3
10-01-1996,12:00,,,,6,R,ugm-3
10-01-1996,13:00,,,,6,R,ugm-3
10-01-1996,14:00,,,,12,R,ugm-3
10-01-1996,15:00,,,,16,R,ugm-3
10-01-1996,16:00,,,,8,R,ugm-3
10-01-1996,17:00,,,,4,R,ugm-3
10-01-1996,18:00,,,,6,R,ugm-3
10-01-1996,19:00,,,,4,R,ugm-3
10-01-1996,20:00,,,,8,R,ugm-3
10-01-1996,21:00,,,,20,R,ugm-3
10-01-1996,22:00,,,,16,R,ugm-3
10-01-1996,23:00,,,,16,R,ugm-3
10-01-1996,24:00,,,,32,R,ugm-3
11-01-1996,01:00,,,,38,R,ugm-3
11-01-1996,02:00,,,,50,R,ugm-3
11-01-1996,03:00,,,,58,R,ugm-3
11-01-1996,04:00,,,,64,R,ugm-3
11-01-1996,05:00,,,,64,R,ugm-3
11-01-1996,06:00,,,,62,R,ugm-3
11-01-1996,07:00,,,,64,R,ugm-3
11-01-1996,08:00,,,,62,R,ugm-3
11-01-1996,09:00,,,,64,R,ugm-3
11-01-1996,10:00,,,,68,R,ugm-3
11-01-1996,11:00,,,,68,R,ugm-3
11-01-1996,12:00,,,,68,R,ugm-3
11-01-1996,13:00,,,,66,R,ugm-3
11-01-1996,14:00,,,,64,R,ugm-3
11-01-1996,15:00,,,,62,R,ugm-3
11-01-1996,16:00,,,,58,R,ugm-3
11-01-1996,17:00,,,,54,R,ugm-3
11-01-1996,18:00,,,,56,R,ugm-3
11-01-1996,19:00,,,,52,R,ugm-3
11-01-1996,20:00,,,,54,R,ugm-3
11-01-1996,21:00,,,,52,R,ugm-3
11-01-1996,22:00,,,,48,R,ugm-3
11-01-1996,23:00,,,,50,R,ugm-3
11-01-1996,24:00,,,,48,R,ugm-3
12-01-1996,01:00,,,,54,R,ugm-3
12-01-1996,02:00,,,,58,R,ugm-3
12-01-1996,03:00,,,,58,R,ugm-3
12-01-1996,04:00,,,,58,R,ugm-3
12-01-1996,05:00,,,,58,R,ugm-3
12-01-1996,06:00,,,,56,R,ugm-3
12-01-1996,07:00,,,,58,R,ugm-3
12-01-1996,08:00,,,,56,R,ugm-3
12-01-1996,09:00,,,,54,R,ugm-3
12-01-1996,10:00,,,,60,R,ugm-3
12-01-1996,11:00,,,,60,R,ugm-3
12-01-1996,12:00,,,,58,R,ugm-3
12-01-1996,13:00,,,,54,R,ugm-3
12-01-1996,14:00,,,,50,R,ugm-3
12-01-1996,15:00,,,,44,R,ugm-3
12-01-1996,16:00,,,,48,R,ugm-3
12-01-1996,17:00,,,,44,R,ugm-3
12-01-1996,18:00,,,,44,R,ugm-3
12-01-1996,19:00,,,,32,R,ugm-3
12-01-1996,20:00,,,,16,R,ugm-3
12-01-1996,21:00,,,,10,R,ugm-3
12-01-1996,22:00,,,,8,R,ugm-3
12-01-1996,23:00,,,,32,R,ugm-3
12-01-1996,24:00,,,,48,R,ugm-3
13-01-1996,01:00,,,,54,R,ugm-3
13-01-1996,02:00,,,,60,R,ugm-3
13-01-1996,03:00,,,,56,R,ugm-3
13-01-1996,04:00,,,,54,R,ugm-3
13-01-1996,05:00,,,,50,R,ugm-3
13-01-1996,06:00,,,,52,R,ugm-3
13-01-1996,07:00,,,,56,R,ugm-3
13-01-1996,08:00,,,,60,R,ugm-3
13-01-1996,09:00,,,,52,R,ugm-3
13-01-1996,10:00,,,,56,R,ugm-3
13-01-1996,11:00,,,,56,R,ugm-3
13-01-1996,12:00,,,,56,R,ugm-3
13-01-1996,13:00,,,,52,R,ugm-3
13-01-1996,14:00,,,,50,R,ugm-3
13-01-1996,15:00,,,,50,R,ugm-3
13-01-1996,16:00,,,,52,R,ugm-3
13-01-1996,17:00,,,,54,R,ugm-3
13-01-1996,18:00,,,,58,R,ugm-3
13-01-1996,19:00,,,,62,R,ugm-3
13-01-1996,20:00,,,,64,R,ugm-3
13-01-1996,21:00,,,,62,R,ugm-3
13-01-1996,22:00,,,,60,R,ugm-3
13-01-1996,23:00,,,,60,R,ugm-3
13-01-1996,24:00,,,,58,R,ugm-3
14-01-1996,01:00,,,,56,R,ugm-3
14-01-1996,02:00,,,,56,R,ugm-3
14-01-1996,03:00,,,,58,R,ugm-3
14-01-1996,04:00,,,,56,R,ugm-3
14-01-1996,05:00,,,,52,R,ugm-3
14-01-1996,06:00,,,,56,R,ugm-3
14-01-1996,07:00,,,,58,R,ugm-3
14-01-1996,08:00,,,,62,R,ugm-3
14-01-1996,09:00,,,,58,R,ugm-3
14-01-1996,10:00,,,,58,R,ugm-3
14-01-1996,11:00,,,,56,R,ugm-3
14-01-1996,12:00,,,,54,R,ugm-3
14-01-1996,13:00,,,,50,R,ugm-3
14-01-1996,14:00,,,,46,R,ugm-3
14-01-1996,15:00,,,,44,R,ugm-3
14-01-1996,16:00,,,,44,R,ugm-3
14-01-1996,17:00,,,,40,R,ugm-3
14-01-1996,18:00,,,,38,R,ugm-3
14-01-1996,19:00,,,,38,R,ugm-3
14-01-1996,20:00,,,,36,R,ugm-3
14-01-1996,21:00,,,,36,R,ugm-3
14-01-1996,22:00,,,,34,R,ugm-3
14-01-1996,23:00,,,,36,R,ugm-3
14-01-1996,24:00,,,,38,R,ugm-3
15-01-1996,01:00,,,,52,R,ugm-3
15-01-1996,02:00,,,,60,R,ugm-3
15-01-1996,03:00,,,,62,R,ugm-3
15-01-1996,04:00,,,,68,R,ugm-3
15-01-1996,05:00,,,,64,R,ugm-3
15-01-1996,06:00,,,,60,R,ugm-3
15-01-1996,07:00,,,,56,R,ugm-3
15-01-1996,08:00,,,,50,R,ugm-3
15-01-1996,09:00,,,,54,R,ugm-3
15-01-1996,10:00,,,,58,R,ugm-3
15-01-1996,11:00,,,,60,R,ugm-3
15-01-1996,12:00,,,,62,R,ugm-3
15-01-1996,13:00,,,,60,R,ugm-3
15-01-1996,14:00,,,,50,R,ugm-3
15-01-1996,15:00,,,,50,R,ugm-3
15-01-1996,16:00,,,,50,R,ugm-3
15-01-1996,17:00,,,,24,R,ugm-3
15-01-1996,18:00,,,,8,R,ugm-3
15-01-1996,19:00,,,,2,R,ugm-3
15-01-1996,20:00,,,,2,R,ugm-3
15-01-1996,21:00,,,,0,R,ugm-3
15-01-1996,22:00,,,,0,R,ugm-3
15-01-1996,23:00,,,,2,R,ugm-3
15-01-1996,24:00,,,,2,R,ugm-3
16-01-1996,01:00,,,,2,R,ugm-3
16-01-1996,02:00,,,,,,
16-01-1996,03:00,,,,,,
16-01-1996,04:00,,,,,,
16-01-1996,05:00,,,,,,
16-01-1996,06:00,,,,,,
16-01-1996,07:00,,,,,,
16-01-1996,08:00,,,,,,
16-01-1996,09:00,,,,,,
16-01-1996,10:00,,,,,,
16-01-1996,11:00,,,,,,
16-01-1996,12:00,,,,,,
16-01-1996,13:00,,,,,,
16-01-1996,14:00,,,,,,
16-01-1996,15:00,,,,,,
16-01-1996,16:00,,,,,,
16-01-1996,17:00,,,,,,
16-01-1996,18:00,,,,,,
16-01-1996,19:00,,,,,,
16-01-1996,20:00,,,,,,
16-01-1996,21:00,,,,,,
16-01-1996,22:00,,,,,,
16-01-1996,23:00,,,,,,
16-01-1996,24:00,,,,,,
17-01-1996,01:00,,,,,,
17-01-1996,02:00,,,,,,
17-01-1996,03:00,,,,,,
17-01-1996,04:00,,,,,,
17-01-1996,05:00,,,,,,
17-01-1996,06:00,,,,,,
17-01-1996,07:00,,,,,,
17-01-1996,08:00,,,,,,
17-01-1996,09:00,,,,,,
17-01-1996,10:00,,,,,,
17-01-1996,11:00,,,,,,
17-01-1996,12:00,,,,,,
17-01-1996,13:00,,,,,,
17-01-1996,14:00,,,,,,
17-01-1996,15:00,,,,,,
17-01-1996,16:00,,,,,,
17-01-1996,17:00,,,,,,
17-01-1996,18:00,,,,,,
17-01-1996,19:00,,,,,,
17-01-1996,20:00,,,,,,
17-01-1996,21:00,,,,,,
17-01-1996,22:00,,,,,,
17-01-1996,23:00,,,,,,
17-01-1996,24:00,,,,,,
18-01-1996,01:00,,,,,,
18-01-1996,02:00,,,,,,
18-01-1996,03:00,,,,,,
18-01-1996,04:00,,,,,,
18-01-1996,05:00,,,,,,
18-01-1996,06:00,,,,,,
18-01-1996,07:00,,,,,,
18-01-1996,08:00,,,,,,
18-01-1996,09:00,,,,,,
18-01-1996,10:00,,,,,,
18-01-1996,11:00,,,,,,
18-01-1996,12:00,,,,,,
18-01-1996,13:00,,,,,,
18-01-1996,14:00,,,,,,
18-01-1996,15:00,,,,,,
18-01-1996,16:00,,,,,,
18-01-1996,17:00,,,,,,
18-01-1996,18:00,,,,,,
18-01-1996,19:00,,,,,,
18-01-1996,20:00,,,,,,
18-01-1996,21:00,,,,,,
18-01-1996,22:00,,,,,,
18-01-1996,23:00,,,,,,
18-01-1996,24:00,,,,,,
19-01-1996,01:00,,,,,,
19-01-1996,02:00,,,,,,
19-01-1996,03:00,,,,,,
19-01-1996,04:00,,,,,,
19-01-1996,05:00,,,,,,
19-01-1996,06:00,,,,,,
19-01-1996,07:00,,,,,,
19-01-1996,08:00,,,,,,
19-01-1996,09:00,,,,,,
19-01-1996,10:00,,,,,,
19-01-1996,11:00,,,,,,
19-01-1996,12:00,,,,,,
19-01-1996,13:00,,,,,,
19-01-1996,14:00,,,,,,
19-01-1996,15:00,,,,,,
19-01-1996,16:00,,,,,,
19-01-1996,17:00,,,,,,
19-01-1996,18:00,,,,,,
19-01-1996,19:00,,,,,,
19-01-1996,20:00,,,,,,
19-01-1996,21:00,,,,,,
19-01-1996,22:00,,,,,,
19-01-1996,23:00,,,,,,
19-01-1996,24:00,,,,,,
20-01-1996,01:00,,,,,,
20-01-1996,02:00,,,,,,
20-01-1996,03:00,,,,,,
20-01-1996,04:00,,,,,,
20-01-1996,05:00,,,,,,
20-01-1996,06:00,,,,,,
20-01-1996,07:00,,,,,,
20-01-1996,08:00,,,,,,
20-01-1996,09:00,,,,,,
20-01-1996,10:00,,,,,,
20-01-1996,11:00,,,,,,
20-01-1996,12:00,,,,,,
20-01-1996,13:00,,,,,,
20-01-1996,14:00,,,,,,
20-01-1996,15:00,,,,,,
20-01-1996,16:00,,,,,,
20-01-1996,17:00,,,,,,
20-01-1996,18:00,,,,,,
20-01-1996,19:00,,,,,,
20-01-1996,20:00,,,,,,
20-01-1996,21:00,,,,,,
20-01-1996,22:00,,,,,,
20-01-1996,23:00,,,,,,
20-01-1996,24:00,,,,,,
21-01-1996,01:00,,,,,,
21-01-1996,02:00,,,,,,
21-01-1996,03:00,,,,,,
21-01-1996,04:00,,,,,,
21-01-1996,05:00,,,,,,
21-01-1996,06:00,,,,,,
21-01-1996,07:00,,,,,,
21-01-1996,08:00,,,,,,
21-01-1996,09:00,,,,,,
21-01-1996,10:00,,,,,,
21-01-1996,11:00,,,,,,
21-01-1996,12:00,,,,,,
21-01-1996,13:00,,,,,,
21-01-1996,14:00,,,,,,
21-01-1996,15:00,,,,,,
21-01-1996,16:00,,,,,,
21-01-1996,17:00,,,,,,
21-01-1996,18:00,,,,,,
21-01-1996,19:00,,,,,,
21-01-1996,20:00,,,,,,
21-01-1996,21:00,,,,,,
21-01-1996,22:00,,,,,,
21-01-1996,23:00,,,,,,
21-01-1996,24:00,,,,,,
22-01-1996,01:00,,,,,,
22-01-1996,02:00,,,,,,
22-01-1996,03:00,,,,,,
22-01-1996,04:00,,,,,,
22-01-1996,05:00,,,,,,
22-01-1996,06:00,,,,,,
22-01-1996,07:00,,,,,,
22-01-1996,08:00,,,,,,
22-01-1996,09:00,,,,,,
22-01-1996,10:00,,,,,,
22-01-1996,11:00,,,,,,
22-01-1996,12:00,,,,,,
22-01-1996,13:00,,,,,,
22-01-1996,14:00,,,,,,
22-01-1996,15:00,,,,,,
22-01-1996,16:00,,,,,,
22-01-1996,17:00,,,,,,
22-01-1996,18:00,,,,,,
22-01-1996,19:00,,,,,,
22-01-1996,20:00,,,,,,
22-01-1996,21:00,,,,,,
22-01-1996,22:00,,,,,,
22-01-1996,23:00,,,,,,
22-01-1996,24:00,,,,,,
23-01-1996,01:00,,,,,,
23-01-1996,02:00,,,,,,
23-01-1996,03:00,,,,,,
23-01-1996,04:00,,,,,,
23-01-1996,05:00,,,,,,
23-01-1996,06:00,,,,,,
23-01-1996,07:00,,,,,,
23-01-1996,08:00,,,,,,
23-01-1996,09:00,,,,,,
23-01-1996,10:00,,,,,,
23-01-1996,11:00,,,,,,
23-01-1996,12:00,,,,,,
23-01-1996,13:00,,,,,,
23-01-1996,14:00,,,,,,
23-01-1996,15:00,,,,,,
23-01-1996,16:00,,,,,,
23-01-1996,17:00,,,,40,R,ugm-3
23-01-1996,18:00,,,,38,R,ugm-3
23-01-1996,19:00,,,,40,R,ugm-3
23-01-1996,20:00,,,,42,R,ugm-3
23-01-1996,21:00,,,,44,R,ugm-3
23-01-1996,22:00,,,,40,R,ugm-3
23-01-1996,23:00,,,,40,R,ugm-3
23-01-1996,24:00,,,,42,R,ugm-3
24-01-1996,01:00,,,,40,R,ugm-3
24-01-1996,02:00,,,,46,R,ugm-3
24-01-1996,03:00,,,,48,R,ugm-3
24-01-1996,04:00,,,,48,R,ugm-3
24-01-1996,05:00,,,,48,R,ugm-3
24-01-1996,06:00,,,,48,R,ugm-3
24-01-1996,07:00,,,,46,R,ugm-3
24-01-1996,08:00,,,,46,R,ugm-3
24-01-1996,09:00,,,,48,R,ugm-3
24-01-1996,10:00,,,,52,R,ugm-3
24-01-1996,11:00,,,,50,R,ugm-3
24-01-1996,12:00,,,,46,R,ugm-3
24-01-1996,13:00,,,,46,R,ugm-3
24-01-1996,14:00,,,,42,R,ugm-3
24-01-1996,15:00,,,,42,R,ugm-3
24-01-1996,16:00,,,,40,R,ugm-3
24-01-1996,17:00,,,,42,R,ugm-3
24-01-1996,18:00,,,,38,R,ugm-3
24-01-1996,19:00,,,,38,R,ugm-3
24-01-1996,20:00,,,,38,R,ugm-3
24-01-1996,21:00,,,,38,R,ugm-3
24-01-1996,22:00,,,,38,R,ugm-3
24-01-1996,23:00,,,,38,R,ugm-3
24-01-1996,24:00,,,,44,R,ugm-3
25-01-1996,01:00,,,,48,R,ugm-3
25-01-1996,02:00,,,,54,R,ugm-3
25-01-1996,03:00,,,,52,R,ugm-3
25-01-1996,04:00,,,,52,R,ugm-3
25-01-1996,05:00,,,,52,R,ugm-3
25-01-1996,06:00,,,,52,R,ugm-3
25-01-1996,07:00,,,,52,R,ugm-3
25-01-1996,08:00,,,,50,R,ugm-3
25-01-1996,09:00,,,,50,R,ugm-3
25-01-1996,10:00,,,,52,R,ugm-3
25-01-1996,11:00,,,,54,R,ugm-3
25-01-1996,12:00,,,,56,R,ugm-3
25-01-1996,13:00,,,,60,R,ugm-3
25-01-1996,14:00,,,,58,R,ugm-3
25-01-1996,15:00,,,,58,R,ugm-3
25-01-1996,16:00,,,,60,R,ugm-3
25-01-1996,17:00,,,,60,R,ugm-3
25-01-1996,18:00,,,,60,R,ugm-3
25-01-1996,19:00,,,,54,R,ugm-3
25-01-1996,20:00,,,,52,R,ugm-3
25-01-1996,21:00,,,,54,R,ugm-3
25-01-1996,22:00,,,,56,R,ugm-3
25-01-1996,23:00,,,,60,R,ugm-3
25-01-1996,24:00,,,,62,R,ugm-3
26-01-1996,01:00,,,,58,R,ugm-3
26-01-1996,02:00,,,,58,R,ugm-3
26-01-1996,03:00,,,,56,R,ugm-3
26-01-1996,04:00,,,,50,R,ugm-3
26-01-1996,05:00,,,,50,R,ugm-3
26-01-1996,06:00,,,,54,R,ugm-3
26-01-1996,07:00,,,,54,R,ugm-3
26-01-1996,08:00,,,,54,R,ugm-3
26-01-1996,09:00,,,,52,R,ugm-3
26-01-1996,10:00,,,,52,R,ugm-3
26-01-1996,11:00,,,,52,R,ugm-3
26-01-1996,12:00,,,,52,R,ugm-3
26-01-1996,13:00,,,,56,R,ugm-3
26-01-1996,14:00,,,,56,R,ugm-3
26-01-1996,15:00,,,,52,R,ugm-3
26-01-1996,16:00,,,,50,R,ugm-3
26-01-1996,17:00,,,,48,R,ugm-3
26-01-1996,18:00,,,,50,R,ugm-3
26-01-1996,19:00,,,,44,R,ugm-3
26-01-1996,20:00,,,,40,R,ugm-3
26-01-1996,21:00,,,,46,R,ugm-3
26-01-1996,22:00,,,,46,R,ugm-3
26-01-1996,23:00,,,,48,R,ugm-3
26-01-1996,24:00,,,,46,R,ugm-3
27-01-1996,01:00,,,,44,R,ugm-3
27-01-1996,02:00,,,,48,R,ugm-3
27-01-1996,03:00,,,,50,R,ugm-3
27-01-1996,04:00,,,,52,R,ugm-3
27-01-1996,05:00,,,,54,R,ugm-3
27-01-1996,06:00,,,,56,R,ugm-3
27-01-1996,07:00,,,,58,R,ugm-3
27-01-1996,08:00,,,,60,R,ugm-3
27-01-1996,09:00,,,,64,R,ugm-3
27-01-1996,10:00,,,,66,R,ugm-3
27-01-1996,11:00,,,,66,R,ugm-3
27-01-1996,12:00,,,,66,R,ugm-3
27-01-1996,13:00,,,,68,R,ugm-3
27-01-1996,14:00,,,,62,R,ugm-3
27-01-1996,15:00,,,,60,R,ugm-3
27-01-1996,16:00,,,,60,R,ugm-3
27-01-1996,17:00,,,,62,R,ugm-3
27-01-1996,18:00,,,,58,R,ugm-3
27-01-1996,19:00,,,,54,R,ugm-3
27-01-1996,20:00,,,,40,R,ugm-3
27-01-1996,21:00,,,,30,R,ugm-3
27-01-1996,22:00,,,,24,R,ugm-3
27-01-1996,23:00,,,,26,R,ugm-3
27-01-1996,24:00,,,,32,R,ugm-3
28-01-1996,01:00,,,,40,R,ugm-3
28-01-1996,02:00,,,,40,R,ugm-3
28-01-1996,03:00,,,,38,R,ugm-3
28-01-1996,04:00,,,,38,R,ugm-3
28-01-1996,05:00,,,,36,R,ugm-3
28-01-1996,06:00,,,,32,R,ugm-3
28-01-1996,07:00,,,,28,R,ugm-3
28-01-1996,08:00,,,,18,R,ugm-3
28-01-1996,09:00,,,,12,R,ugm-3
28-01-1996,10:00,,,,12,R,ugm-3
28-01-1996,11:00,,,,14,R,ugm-3
28-01-1996,12:00,,,,14,R,ugm-3
28-01-1996,13:00,,,,28,R,ugm-3
28-01-1996,14:00,,,,40,R,ugm-3
28-01-1996,15:00,,,,46,R,ugm-3
28-01-1996,16:00,,,,46,R,ugm-3
28-01-1996,17:00,,,,48,R,ugm-3
28-01-1996,18:00,,,,58,R,ugm-3
28-01-1996,19:00,,,,62,R,ugm-3
28-01-1996,20:00,,,,62,R,ugm-3
28-01-1996,21:00,,,,60,R,ugm-3
28-01-1996,22:00,,,,58,R,ugm-3
28-01-1996,23:00,,,,58,R,ugm-3
28-01-1996,24:00,,,,60,R,ugm-3
29-01-1996,01:00,,,,62,R,ugm-3
29-01-1996,02:00,,,,60,R,ugm-3
29-01-1996,03:00,,,,60,R,ugm-3
29-01-1996,04:00,,,,62,R,ugm-3
29-01-1996,05:00,,,,64,R,ugm-3
29-01-1996,06:00,,,,62,R,ugm-3
29-01-1996,07:00,,,,58,R,ugm-3
29-01-1996,08:00,,,,56,R,ugm-3
29-01-1996,09:00,,,,48,R,ugm-3
29-01-1996,10:00,,,,46,R,ugm-3
29-01-1996,11:00,,,,48,R,ugm-3
29-01-1996,12:00,,,,60,R,ugm-3
29-01-1996,13:00,,,,60,R,ugm-3
29-01-1996,14:00,,,,60,R,ugm-3
29-01-1996,15:00,,,,54,R,ugm-3
29-01-1996,16:00,,,,50,R,ugm-3
29-01-1996,17:00,,,,50,R,ugm-3
29-01-1996,18:00,,,,48,R,ugm-3
29-01-1996,19:00,,,,44,R,ugm-3
29-01-1996,20:00,,,,46,R,ugm-3
29-01-1996,21:00,,,,44,R,ugm-3
29-01-1996,22:00,,,,42,R,ugm-3
29-01-1996,23:00,,,,40,R,ugm-3
29-01-1996,24:00,,,,38,R,ugm-3
30-01-1996,01:00,,,,40,R,ugm-3
30-01-1996,02:00,,,,44,R,ugm-3
30-01-1996,03:00,,,,46,R,ugm-3
30-01-1996,04:00,,,,48,R,ugm-3
30-01-1996,05:00,,,,50,R,ugm-3
30-01-1996,06:00,,,,50,R,ugm-3
30-01-1996,07:00,,,,50,R,ugm-3
30-01-1996,08:00,,,,50,R,ugm-3
30-01-1996,09:00,,,,50,R,ugm-3
30-01-1996,10:00,,,,50,R,ugm-3
30-01-1996,11:00,,,,48,R,ugm-3
30-01-1996,12:00,,,,42,R,ugm-3
30-01-1996,13:00,,,,42,R,ugm-3
30-01-1996,14:00,,,,42,R,ugm-3
30-01-1996,15:00,,,,44,R,ugm-3
30-01-1996,16:00,,,,44,R,ugm-3
30-01-1996,17:00,,,,42,R,ugm-3
30-01-1996,18:00,,,,38,R,ugm-3
30-01-1996,19:00,,,,36,R,ugm-3
30-01-1996,20:00,,,,30,R,ugm-3
30-01-1996,21:00,,,,26,R,ugm-3
30-01-1996,22:00,,,,24,R,ugm-3
30-01-1996,23:00,,,,24,R,ugm-3
30-01-1996,24:00,,,,28,R,ugm-3
31-01-1996,01:00,,,,28,R,ugm-3
31-01-1996,02:00,,,,30,R,ugm-3
31-01-1996,03:00,,,,30,R,ugm-3
31-01-1996,04:00,,,,28,R,ugm-3
31-01-1996,05:00,,,,26,R,ugm-3
31-01-1996,06:00,,,,24,R,ugm-3
31-01-1996,07:00,,,,26,R,ugm-3
31-01-1996,08:00,,,,24,R,ugm-3
31-01-1996,09:00,,,,24,R,ugm-3
31-01-1996,10:00,,,,22,R,ugm-3
31-01-1996,11:00,,,,26,R,ugm-3
31-01-1996,12:00,,,,30,R,ugm-3
31-01-1996,13:00,,,,34,R,ugm-3
31-01-1996,14:00,,,,36,R,ugm-3
31-01-1996,15:00,,,,38,R,ugm-3
31-01-1996,16:00,,,,36,R,ugm-3
31-01-1996,17:00,,,,38,R,ugm-3
31-01-1996,18:00,,,,40,R,ugm-3
31-01-1996,19:00,,,,42,R,ugm-3
31-01-1996,20:00,,,,40,R,ugm-3
31-01-1996,21:00,,,,42,R,ugm-3
31-01-1996,22:00,,,,44,R,ugm-3
31-01-1996,23:00,,,,42,R,ugm-3
31-01-1996,24:00,,,,40,R,ugm-3
01-02-1996,01:00,,,,36,R,ugm-3
01-02-1996,02:00,,,,26,R,ugm-3
01-02-1996,03:00,,,,22,R,ugm-3
01-02-1996,04:00,,,,18,R,ugm-3
01-02-1996,05:00,,,,22,R,ugm-3
01-02-1996,06:00,,,,22,R,ugm-3
01-02-1996,07:00,,,,18,R,ugm-3
01-02-1996,08:00,,,,20,R,ugm-3
01-02-1996,09:00,,,,10,R,ugm-3
01-02-1996,10:00,,,,20,R,ugm-3
01-02-1996,11:00,,,,30,R,ugm-3
01-02-1996,12:00,,,,32,R,ugm-3
01-02-1996,13:00,,,,36,R,ugm-3
01-02-1996,14:00,,,,34,R,ugm-3
01-02-1996,15:00,,,,34,R,ugm-3
01-02-1996,16:00,,,,36,R,ugm-3
01-02-1996,17:00,,,,26,R,ugm-3
01-02-1996,18:00,,,,24,R,ugm-3
01-02-1996,19:00,,,,22,R,ugm-3
01-02-1996,20:00,,,,22,R,ugm-3
01-02-1996,21:00,,,,24,R,ugm-3
01-02-1996,22:00,,,,20,R,ugm-3
01-02-1996,23:00,,,,8,R,ugm-3
01-02-1996,24:00,,,,8,R,ugm-3
02-02-1996,01:00,,,,6,R,ugm-3
02-02-1996,02:00,,,,6,R,ugm-3
02-02-1996,03:00,,,,6,R,ugm-3
02-02-1996,04:00,,,,6,R,ugm-3
02-02-1996,05:00,,,,6,R,ugm-3
02-02-1996,06:00,,,,8,R,ugm-3
02-02-1996,07:00,,,,22,R,ugm-3
02-02-1996,08:00,,,,28,R,ugm-3
02-02-1996,09:00,,,,36,R,ugm-3
02-02-1996,10:00,,,,42,R,ugm-3
02-02-1996,11:00,,,,42,R,ugm-3
02-02-1996,12:00,,,,44,R,ugm-3
02-02-1996,13:00,,,,44,R,ugm-3
02-02-1996,14:00,,,,48,R,ugm-3
02-02-1996,15:00,,,,54,R,ugm-3
02-02-1996,16:00,,,,60,R,ugm-3
02-02-1996,17:00,,,,54,R,ugm-3
02-02-1996,18:00,,,,46,R,ugm-3
02-02-1996,19:00,,,,44,R,ugm-3
02-02-1996,20:00,,,,34,R,ugm-3
02-02-1996,21:00,,,,26,R,ugm-3
02-02-1996,22:00,,,,22,R,ugm-3
02-02-1996,23:00,,,,18,R,ugm-3
02-02-1996,24:00,,,,16,R,ugm-3
03-02-1996,01:00,,,,20,R,ugm-3
03-02-1996,02:00,,,,14,R,ugm-3
03-02-1996,03:00,,,,14,R,ugm-3
03-02-1996,04:00,,,,12,R,ugm-3
03-02-1996,05:00,,,,10,R,ugm-3
03-02-1996,06:00,,,,10,R,ugm-3
03-02-1996,07:00,,,,8,R,ugm-3
03-02-1996,08:00,,,,8,R,ugm-3
03-02-1996,09:00,,,,8,R,ugm-3
03-02-1996,10:00,,,,8,R,ugm-3
03-02-1996,11:00,,,,12,R,ugm-3
03-02-1996,12:00,,,,20,R,ugm-3
03-02-1996,13:00,,,,24,R,ugm-3
03-02-1996,14:00,,,,26,R,ugm-3
03-02-1996,15:00,,,,26,R,ugm-3
03-02-1996,16:00,,,,24,R,ugm-3
03-02-1996,17:00,,,,18,R,ugm-3
03-02-1996,18:00,,,,10,R,ugm-3
03-02-1996,19:00,,,,10,R,ugm-3
03-02-1996,20:00,,,,10,R,ugm-3
03-02-1996,21:00,,,,10,R,ugm-3
03-02-1996,22:00,,,,8,R,ugm-3
03-02-1996,23:00,,,,10,R,ugm-3